Weather History for Jackson, TN

Change the Weather History Date:

Saturday, February 9, 2013

  Actual Average Record
Temperature  
Mean Temperature 42 °F 41 °F  
Max Temperature 52 °F 51 °F 77 °F (1957)
Min Temperature 32 °F 30 °F 1 °F (1979)
Degree Days  
Heating Degree Days 23 24  
Month to date heating degree days 198 225  
Since 1 July heating degree days 2267 2474  
Cooling Degree Days 0 0  
Month to date cooling degree days 0 0  
Year to date cooling degree days 4 0  
Moisture  
Dew Point 30 °F    
Average Humidity 66    
Maximum Humidity 85    
Minimum Humidity 46    
Precipitation  
Precipitation T in 0.15 in 1.70 in (1990)
Month to date precipitation 0.68 1.36  
Year to date precipitation 8.97 5.43  
Snow  
Snow 0.00 in 0.10 in 1.70 in (2010)
Month to date snowfall 0.1 0.7  
Since 1 July snowfall 1.4 3.3  
Snow Depth 0.00 in    
Sea Level Pressure  
Sea Level Pressure 30.25 in    
Wind  
Wind Speed 6 mph (East)    
Max Wind Speed 12 mph    
Max Gust Speed 17 mph    
Visibility 10 miles    
Events Rain    
T = Trace of Precipitation, MM = Missing Value Source: NWS Daily Summary

Daily Weather History Graph

Daily Weather History Graph

Search for Another Location

Airport:

Trip Planner

Search our weather history database for the weather conditions in past years. The results will help you decide how hot, cold, wet, or windy it might be!

Date:

Astronomy

Feb. 09, 2013 Rise Set
Actual Time 6:48 AM CST 5:31 PM CST
Civil Twilight 6:21 AM CST 5:58 PM CST
Nautical Twilight 5:51 AM CST 6:28 PM CST
Astronomical Twilight 5:22 AM CST 6:58 PM CST
Moon 6:00 AM CST (2/9) 5:13 PM CST (2/9)
Length of Visible Light 11h 36m
Length of Day
10h 43m
Waning Crescent, 0% of the Moon is Illuminated
Feb 9
Waning Crescent
Feb 10
New
Feb 17
First Quarter
Feb 25
Full
Mar 4
Last Quarter

Hourly Weather History & Observations

Time (CST) Temp. Windchill Dew Point Humidity Pressure Visibility Wind Dir Wind Speed Gust Speed Precip Events Conditions
12:33 AM 33.8 °F 27.0 °F 28.4 °F 81% 30.29 in 10.0 mi ENE 8.1 mph - N/A   Scattered Clouds
12:53 AM 33.1 °F 26.1 °F 28.9 °F 85% 30.31 in 10.0 mi ENE 8.1 mph - N/A   Clear
1:33 AM 33.8 °F 29.6 °F 28.4 °F 81% 30.31 in 10.0 mi NE 4.6 mph - N/A   Mostly Cloudy
1:53 AM 33.1 °F 26.9 °F 28.9 °F 85% 30.31 in 10.0 mi ENE 6.9 mph - N/A   Overcast
2:53 AM 33.1 °F 27.7 °F 28.9 °F 85% 30.30 in 10.0 mi ENE 5.8 mph - N/A   Overcast
3:53 AM 32.0 °F 26.4 °F 28.0 °F 85% 30.30 in 10.0 mi East 5.8 mph - N/A   Overcast
4:53 AM 33.1 °F 28.7 °F 28.0 °F 82% 30.33 in 10.0 mi NE 4.6 mph - N/A   Overcast
5:53 AM 33.1 °F 26.1 °F 28.0 °F 82% 30.35 in 10.0 mi ENE 8.1 mph - N/A   Overcast
6:53 AM 33.1 °F 27.7 °F 28.9 °F 85% 30.35 in 10.0 mi East 5.8 mph - N/A   Overcast
7:53 AM 33.1 °F 25.5 °F 28.0 °F 82% 30.35 in 10.0 mi East 9.2 mph - N/A   Overcast
8:53 AM 34.0 °F 27.2 °F 28.9 °F 82% 30.36 in 10.0 mi East 8.1 mph - N/A   Mostly Cloudy
9:09 AM 35.6 °F 29.9 °F 28.4 °F 75% 30.35 in 10.0 mi ENE 6.9 mph - N/A   Scattered Clouds
9:53 AM 37.0 °F 31.0 °F 30.0 °F 76% 30.34 in 10.0 mi East 8.1 mph - N/A   Clear
10:53 AM 39.9 °F 37.8 °F 30.0 °F 68% 30.34 in 10.0 mi Variable 3.5 mph - N/A   Clear
11:53 AM 44.1 °F 40.8 °F 30.9 °F 60% 30.30 in 10.0 mi East 5.8 mph - N/A   Clear
12:53 PM 46.9 °F - 32.0 °F 56% 30.26 in 10.0 mi ENE 4.6 mph - N/A   Clear
1:53 PM 50.0 °F - 32.0 °F 50% 30.22 in 10.0 mi East 5.8 mph - N/A   Clear
2:53 PM 50.0 °F - 30.0 °F 46% 30.20 in 10.0 mi Variable 3.5 mph - N/A   Clear
3:53 PM 51.1 °F - 33.1 °F 50% 30.17 in 10.0 mi ESE 6.9 mph - N/A   Clear
4:53 PM 50.0 °F - 32.0 °F 50% 30.16 in 10.0 mi ESE 5.8 mph - N/A   Clear
5:53 PM 48.0 °F - 32.0 °F 54% 30.14 in 10.0 mi ESE 4.6 mph - N/A   Clear
6:53 PM 48.9 °F - 32.0 °F 52% 30.14 in 10.0 mi ESE 3.5 mph - N/A   Mostly Cloudy
7:53 PM 48.0 °F - 32.0 °F 54% 30.14 in 10.0 mi Calm Calm - N/A   Clear
8:53 PM 48.9 °F - 32.0 °F 52% 30.12 in 10.0 mi ESE 3.5 mph - N/A   Clear
9:53 PM 50.0 °F - 32.0 °F 50% 30.11 in 10.0 mi SSE 3.5 mph - N/A   Clear
10:53 PM 50.0 °F - 33.1 °F 52% 30.09 in 10.0 mi SSE 4.6 mph - N/A   Clear
11:53 PM 52.0 °F - 35.1 °F 53% 30.07 in 10.0 mi SSE 8.1 mph - 0.00 in Rain Light Rain